EW9902 Weather Reports


time (UTC)temp
C
wind
direction
speed
KPH
gust
KPH
rain 1hr
cm
rain 24hr
cm
rain mn
cm
humidity
%
barometer
mb
20260505121502 21 197 0.0 3.2 0.00 0.00 0.00 92 1007.2
20260505120109 21 157 0.0 3.2 0.00 0.00 0.00 93 1006.8
20260505114558 21 198 0.0 1.6 0.00 0.00 0.00 93 1006.5
20260505113114 20 190 0.0 6.4 0.00 0.00 0.00 93 1006.5
20260505111556 20 194 0.0 3.2 0.00 0.00 0.00 93 1006.8
20260505101551 20 186 0.0 16.1 0.00 0.00 0.00 93 1006.4
20260505100050 20 188 0.0 3.2 0.00 0.00 0.00 93 1006.5
20260505094548 20 187 0.0 12.9 0.00 0.00 0.00 93 1006.6
20260505093051 20 204 0.0 1.6 0.00 0.00 0.00 92 1006.7
20260505091546 20 169 0.0 1.6 0.00 0.00 0.00 92 1006.8
20260505090043 20 180 0.0 1.6 0.00 0.00 0.00 91 1007.1
20260505084547 20 159 0.0 1.6 0.00 0.00 0.00 91 1007.2
20260505083049 20 175 0.0 1.6 0.00 0.00 0.00 91 1007.3
20260505081546 20 184 0.0 1.6 0.00 0.00 0.00 90 1007.6
20260505080036 20 178 0.0 1.6 0.00 0.00 0.00 90 1007.7
20260505074536 20 192 0.0 1.6 0.00 0.00 0.00 89 1007.8
20260505073037 20 171 0.0 1.6 0.00 0.00 0.00 89 1007.9
20260505071534 20 163 0.0 8.0 0.00 0.00 0.00 89 1008.0
20260505070041 20 158 0.0 3.2 0.00 0.00 0.00 89 1008.2
20260505064530 20 193 0.0 3.2 0.00 0.00 0.00 89 1008.4
20260505063033 20 195 0.0 6.4 0.00 0.00 0.00 89 1008.5
20260505061531 20 196 0.0 0.0 0.00 0.00 0.00 89 1008.7
20260505060034 20 178 0.0 1.6 0.00 0.00 0.00 88 1008.6
20260505054527 20 178 0.0 1.6 0.00 0.00 0.00 88 1008.4
20260505053026 20 166 0.0 1.6 0.00 0.00 0.00 87 1008.5
20260505051524 20 171 9.7 17.7 0.00 0.00 0.00 87 1008.4
20260505041519 21 173 9.7 16.1 0.00 0.00 0.00 85 1008.7
20260505040017 21 159 8.0 19.3 0.00 0.00 0.00 84 1008.7
20260505034523 21 161 8.0 14.5 0.00 0.00 0.00 83 1008.7
20260505033017 21 152 9.7 17.7 0.00 0.00 0.00 82 1008.8
20260505031517 21 158 4.8 14.5 0.00 0.00 0.00 81 1008.7
20260505030016 22 167 8.0 17.7 0.00 0.00 0.00 80 1008.2
20260505024515 22 168 8.0 14.5 0.00 0.00 0.00 78 1008.6
20260505023016 22 169 6.4 17.7 0.00 0.00 0.00 77 1008.5
20260505021515 22 157 8.0 14.5 0.00 0.00 0.00 75 1008.5
20260505020014 23 183 11.3 17.7 0.00 0.00 0.00 75 1008.3
20260505014513 23 196 11.3 22.5 0.00 0.00 0.00 75 1008.3
20260505013012 23 176 8.0 14.5 0.00 0.00 0.00 74 1008.0
20260505011522 23 175 8.0 16.1 0.00 0.00 0.00 73 1007.9
20260505010015 23 166 8.0 14.5 0.00 0.00 0.00 73 1007.8
20260505004511 24 190 8.0 14.5 0.00 0.00 0.00 72 1007.9
20260505003009 25 166 8.0 16.1 0.00 0.00 0.00 70 1008.0
20260505001510 25 203 11.3 22.5 0.00 0.00 0.00 69 1008.3
20260505000006 25 166 8.0 17.7 0.00 0.00 0.00 69 1008.4
20260504234506 25 171 12.9 19.3 0.00 0.00 0.00 68 1008.4
20260504233004 25 181 11.3 25.7 0.00 0.00 0.00 66 1008.7
20260504231505 25 180 12.9 19.3 0.00 0.00 0.00 65 1008.6
20260504230002 26 149 12.9 25.7 0.00 0.00 0.00 64 1008.9
20260504224600 26 186 6.4 24.1 0.00 0.00 0.00 64 1009.1
20260504223100 26 185 12.9 25.7 0.00 0.00 0.00 62 1008.9
20260504221559 26 192 16.1 24.1 0.00 0.00 0.00 60 1009.2
20260504220056 27 199 14.5 30.6 0.00 0.00 0.00 59 1009.3
20260504214600 27 223 11.3 30.6 0.00 0.00 0.00 58 1009.6
20260504213053 27 176 16.1 29.0 0.00 0.00 0.00 60 1009.8
20260504211549 27 219 16.1 30.6 0.00 0.00 0.00 59 1010.0
20260504210047 27 157 17.7 29.0 0.00 0.00 0.00 57 1010.5
20260504204645 27 201 17.7 29.0 0.00 0.00 0.00 58 1010.6
20260504203049 27 206 16.1 24.1 0.00 0.00 0.00 60 1010.9
20260504201544 27 198 14.5 30.6 0.00 0.00 0.00 58 1011.1
20260504200039 27 186 19.3 30.6 0.00 0.00 0.00 56 1011.5
20260504194537 26 217 11.3 25.7 0.00 0.00 0.00 57 1011.8
20260504193034 26 178 16.1 25.7 0.00 0.00 0.00 59 1011.8
20260504191531 26 214 14.5 30.6 0.00 0.00 0.00 60 1012.1
20260504190028 26 190 12.9 32.2 0.00 0.00 0.00 60 1012.4
20260504184526 26 214 17.7 32.2 0.00 0.00 0.00 59 1012.5
20260504183024 25 173 12.9 25.7 0.00 0.00 0.00 62 1012.7
20260504181520 25 213 22.5 33.8 0.00 0.00 0.00 59 1013.0
20260504180019 25 161 19.3 29.0 0.00 0.00 0.00 57 1013.2
20260504174515 25 215 17.7 30.6 0.00 0.00 0.00 56 1013.4
20260504173011 25 157 12.9 30.6 0.00 0.00 0.00 58 1013.6
20260504171514 25 181 14.5 29.0 0.00 0.00 0.00 59 1014.0